Weather Roundup
Issued by NWS

Home | Current Version | Previous Version | Graphics & Text | Print | Product List | Glossary Off
Versions: 1 2 3 4 5 6 7 8 9 10 11 12 13 14 15 16 17 18 19 20 21 22 23 24 25 26 27 28 29 30 31 32 33 34 35 36 37 38 39 40 41 42 43 44 45 46 47 48 49 50

000
NZUS93 KARX 230810
HRRWXR

CURRENT HOURLY OBSERVATIONS ACROSS
MUCH OF THE UPPER MISSISSIPPI VALLEY
NATIONAL WEATHER SERVICE LA CROSSE WI
300 AM CDT SAT JUL 23 2016


...SOUTHEAST MINNESOTA...


CITY           SKY/WX    TMP DP  RH WIND       PRES   REMARKS
ROCHESTER      PTCLDY    75  75 100 E5        29.99F FOG
ROCHESTER/MAYO FAIR      78  78 100 E7        29.99S
WINONA         PTCLDY    73  72  94 CALM      29.98S
AUSTIN         PTCLDY    75  73  94 CALM      29.98S
ALBERT LEA     PTCLDY    79  75  89 SE7       29.97F
DODGE CENTER   CLOUDY    73  72  94 NE3       29.99S FOG
PRESTON        MOCLDY    75  73  93 CALM      30.00S FOG
OWATONNA       CLEAR     77  73  88 E3        29.97S
FARIBAULT      CLEAR     73  72  94 CALM      29.96F
$$

...ELSEWHERE IN MINNESOTA...


CITY           SKY/WX    TMP DP  RH WIND       PRES   REMARKS
MINNEAPOLIS    MOCLDY    77  66  68 E7        29.95F
INTNL FALLS    CLOUDY    56  55  97 CALM      30.01S
DULUTH         CLEAR     67  61  81 CALM      30.01S
RED WING       PTCLDY    68  66  94 CALM      29.95F
REDWOOD FALLS  MOCLDY    75  70  84 E7        29.92F
MANKATO        CLEAR     77  72  83 E6        29.94F
WORTHINGTON    CLOUDY    78  77  96 E8        29.92F FOG
FAIRMONT       CLOUDY    79  72  78 E7        29.93F
$$

...SOUTHWEST WISCONSIN...


CITY           SKY/WX    TMP DP  RH WIND       PRES   REMARKS
LA CROSSE      PTCLDY    77  74  90 CALM      29.96S
PRAIRIE DU CHI MOCLDY    75  74  95 CALM      29.97S
BOSCOBEL       FOG       77  76  96 CALM      29.98S VSB 1/4
LONE ROCK      FOG       76  75  97 CALM      29.98F VSB 1/4
PLATTEVILLE    MOCLDY    76  76 100 S3        30.00F
FORT MC COY    MOCLDY    66  66 100 S3        30.00R
CAMP DOUGLAS   FOG       63  63 100 W2        29.99R VSB 1/4
MAUSTON-NEW LI FOG       68  68 100 CALM      29.98S VSB 1
VIROQUA        PTSUNNY   75  75 100 CALM      30.01S VSB 1/2
WIS DELLS      FOG       74  73  94 CALM      29.98F VSB 3/4
$$

...ELSEWHERE IN WISCONSIN...


CITY           SKY/WX    TMP DP  RH WIND       PRES   REMARKS
MILWAUKEE      PTCLDY    76  71  85 CALM      29.98S
MADISON        FOG       75  74  96 CALM      29.98S VSB 3/4
GREEN BAY      CLEAR     68  68 100 CALM      29.98R
EAU CLAIRE     CLEAR     66  66 100 CALM      29.97F
BLACK RVR FLS  FOG       63  63 100 CALM      29.98F VSB 1/4
MEDFORD        PTCLDY    64  64 100 CALM      30.03R FOG
WAUSAU         PTCLDY    70  68  93 CALM      30.00F
WIS RAPIDS     CLOUDY    67  64  90 CALM      30.01R
MARSHFIELD     CLEAR     68  65  90 CALM      30.01R
RICE LAKE        N/A     65  64  96 CALM      30.02S FOG
$$

...NORTHEAST IOWA...


CITY           SKY/WX    TMP DP  RH WIND       PRES   REMARKS
WATERLOO       PTCLDY    78  76  93 SE6       29.95F
DUBUQUE        CLOUDY    76  75  97 S3        30.01R
DECORAH        CLEAR     77  77 100 S3        29.98S
MASON CITY     CLEAR     77  75  93 SE6       29.98F
CHARLES CITY   MOCLDY    75  75 100 E6        29.98S
OELWEIN        MOCLDY    77  77 100 SE5       29.99S FOG
$$

...ELSEWHERE IN IOWA...


CITY           SKY/WX    TMP DP  RH WIND       PRES   REMARKS
DES MOINES     PTCLDY    80  76  87 S10       29.94F
IOWA CITY      CLEAR     78  75  90 CALM      29.99S
FORT DODGE     PTCLDY    79  77  94 SE8       29.94F
MARSHALLTOWN   CLOUDY    77  76  96 SE6       29.96F
CEDAR RAPIDS   CLEAR     76  76 100 SE3       29.98R
$$

...NORTHERN ILLINOIS...


CITY           SKY/WX    TMP DP  RH WIND       PRES   REMARKS
CHICAGO-OHARE  PTCLDY    80  76  87 W3        29.98F
CHICAGO-MIDWAY PTCLDY    81  75  82 W6        29.98F
MOLINE         CLEAR     77  74  90 E5        29.97F
ROCKFORD       CLEAR     77  74  90 CALM      30.00F
PEORIA         CLEAR     77  75  93 CALM      29.99F
$$

NOTE: "FAIR" INDICATES FEW OR NO CLOUDS BELOW 12,000 FEET WITH NO
SIGNIFICANT WEATHER AND/OR OBSTRUCTIONS TO VISIBILITY. WIND
SPEEDS ARE IN MILES-PER-HOUR.




USA.gov is the U.S. government's official web portal to all federal, state and local government web resources and services.